EZS51JQ EGKK-LSGG

Flight info

Callsign EZS51JQ
Flight time N/A
Altitude 23000
Route BOGNA L612 XAMAB/N0418F310 UL612 VEULE DCT PEKIM DCT PILUL DCT PIMUP/N0384F270 DCT PIXIS DCT PIBAT DCT LUSAR
Aircraft A320/M-SDE2E3FGHIJ1RWXYZ/LB1

Departure

Time 2026-04-15 07:57
Airport London Gatwick Airport (EGKK)

Arrival

Time N/A
Airport Geneva International Airport (LSGG)
Time Latitude Longitude Altitude Speed Heading
2026-04-15 07:30 51.15416 -0.18912 204 ft 0 kts 257°
2026-04-15 07:49 51.15420 -0.18879 214 ft 4 kts 257°
2026-04-15 07:49 51.15426 -0.18838 210 ft 3 kts 258°
2026-04-15 07:49 51.15435 -0.18802 215 ft 4 kts 211°
2026-04-15 07:49 51.15457 -0.18795 208 ft 2 kts 167°
2026-04-15 07:50 51.15479 -0.18803 216 ft 4 kts 167°
2026-04-15 07:50 51.15485 -0.18805 216 ft 0 kts 167°
2026-04-15 07:52 51.15469 -0.18799 208 ft 6 kts 167°
2026-04-15 07:52 51.15430 -0.18785 212 ft 6 kts 167°
2026-04-15 07:52 51.15374 -0.18766 204 ft 12 kts 168°
2026-04-15 07:52 51.15275 -0.18731 214 ft 16 kts 167°
2026-04-15 07:53 51.15162 -0.18683 212 ft 17 kts 145°
2026-04-15 07:53 51.15162 -0.18499 215 ft 18 kts 77°
2026-04-15 07:53 51.15186 -0.18303 209 ft 18 kts 84°
2026-04-15 07:53 51.15211 -0.18097 206 ft 19 kts 77°
2026-04-15 07:54 51.15241 -0.17879 204 ft 21 kts 77°
2026-04-15 07:54 51.15273 -0.17648 204 ft 22 kts 78°
2026-04-15 07:54 51.15301 -0.17399 212 ft 23 kts 94°
2026-04-15 07:54 51.15277 -0.17344 208 ft 0 kts 154°
2026-04-15 07:55 51.15240 -0.17310 215 ft 10 kts 144°
2026-04-15 07:55 51.15184 -0.17231 210 ft 11 kts 116°
2026-04-15 07:55 51.15210 -0.16977 204 ft 10 kts 77°
2026-04-15 07:56 51.15222 -0.16875 204 ft 9 kts 86°
2026-04-15 07:56 51.15194 -0.16797 210 ft 12 kts 149°
2026-04-15 07:56 51.15118 -0.16844 206 ft 15 kts 249°
2026-04-15 07:56 51.15085 -0.17061 213 ft 42 kts 257°
2026-04-15 07:57 51.14969 -0.17895 211 ft 109 kts 257°
2026-04-15 07:57 51.14771 -0.19359 212 ft 159 kts 259°
2026-04-15 07:57 51.14521 -0.21087 760 ft 160 kts 252°
2026-04-15 07:57 51.14280 -0.22824 1463 ft 164 kts 251°
2026-04-15 07:58 51.14018 -0.24702 1776 ft 184 kts 253°
2026-04-15 07:58 51.13720 -0.26811 2142 ft 206 kts 253°
2026-04-15 07:58 51.13405 -0.29070 2882 ft 212 kts 254°
2026-04-15 07:58 51.13086 -0.31385 3709 ft 216 kts 254°
2026-04-15 07:59 51.12763 -0.33736 4595 ft 218 kts 254°
2026-04-15 07:59 51.12438 -0.36100 5436 ft 220 kts 254°
2026-04-15 07:59 51.12105 -0.38498 6259 ft 223 kts 253°
2026-04-15 07:59 51.11502 -0.40736 7004 ft 222 kts 226°
2026-04-15 08:00 51.10207 -0.41988 7785 ft 223 kts 192°
2026-04-15 08:00 51.08644 -0.42011 8612 ft 227 kts 179°
2026-04-15 08:00 51.07060 -0.41808 9376 ft 235 kts 178°
2026-04-15 08:00 51.05354 -0.41574 9764 ft 256 kts 178°
2026-04-15 08:01 51.03549 -0.41326 10405 ft 264 kts 178°
2026-04-15 08:01 51.01699 -0.41074 11117 ft 269 kts 179°
2026-04-15 08:01 50.99817 -0.40825 11836 ft 274 kts 179°
2026-04-15 08:01 50.97904 -0.40576 12568 ft 278 kts 179°
2026-04-15 08:02 50.95961 -0.40328 13289 ft 283 kts 180°
2026-04-15 08:02 50.93982 -0.40078 13993 ft 288 kts 180°
2026-04-15 08:02 50.91975 -0.39824 14640 ft 291 kts 179°
2026-04-15 08:02 50.89948 -0.39565 15330 ft 293 kts 179°
2026-04-15 08:03 50.87906 -0.39304 16013 ft 295 kts 179°
2026-04-15 08:03 50.85850 -0.39044 16705 ft 297 kts 179°
2026-04-15 08:03 50.83789 -0.38523 17381 ft 304 kts 168°
2026-04-15 08:03 50.81818 -0.37205 18045 ft 313 kts 154°
2026-04-15 08:04 50.79977 -0.35321 18660 ft 317 kts 152°
2026-04-15 08:04 50.78129 -0.33398 19213 ft 319 kts 152°
2026-04-15 08:04 50.76266 -0.31461 19757 ft 322 kts 152°
2026-04-15 08:04 50.74384 -0.29507 20296 ft 325 kts 152°
2026-04-15 08:05 50.72509 -0.27562 20817 ft 328 kts 152°
2026-04-15 08:05 50.70588 -0.25575 21358 ft 332 kts 152°
2026-04-15 08:05 50.68633 -0.23552 21671 ft 344 kts 152°
2026-04-15 08:05 50.66594 -0.21430 21802 ft 359 kts 152°
2026-04-15 08:06 50.64475 -0.19212 21935 ft 373 kts 151°
2026-04-15 08:06 50.62288 -0.16920 22275 ft 381 kts 151°
2026-04-15 08:06 50.60072 -0.14594 22737 ft 385 kts 151°
2026-04-15 08:06 50.57834 -0.12244 23052 ft 388 kts 151°
2026-04-15 08:07 50.55613 -0.09909 23114 ft 377 kts 151°
2026-04-15 08:07 50.53462 -0.07645 23116 ft 369 kts 152°
2026-04-15 08:07 50.51333 -0.05417 23114 ft 367 kts 152°
2026-04-15 08:07 50.49205 -0.03204 23116 ft 366 kts 152°
2026-04-15 08:08 50.47077 -0.01001 23113 ft 366 kts 152°
2026-04-15 08:08 50.44942 0.01208 23113 ft 369 kts 151°
2026-04-15 08:08 50.42798 0.03423 23122 ft 370 kts 151°
2026-04-15 08:08 50.40653 0.05638 23119 ft 369 kts 151°
2026-04-15 08:09 50.38504 0.07858 23127 ft 370 kts 151°
2026-04-15 08:09 50.36359 0.10077 23125 ft 370 kts 151°
2026-04-15 08:09 50.34206 0.12305 23125 ft 370 kts 151°
2026-04-15 08:09 50.32057 0.14528 23128 ft 370 kts 151°
2026-04-15 08:10 50.29911 0.16750 23128 ft 370 kts 151°
2026-04-15 08:10 50.27758 0.18976 23133 ft 370 kts 151°
2026-04-15 08:10 50.26336 0.20440 23133 ft 370 kts 151°